Temperature
18 18 18 18 18 18 18 18 18 18 18 18 18 18 18 18 18 18 18 18 18 18 17 18 18 17 17 17 17 17 17 17 17 17 17 17 17 17 17 17 17 17 17
17 17 18 18 18 18 18 18 18 18 18 18 18 18 18 18 18 18 18 18 18 17 17 17 17 17 17 17 17 17 17 17 17 17 17 17 17 17 17 17 17 17 17
17 17 17 18 18 18 18 18 18 18 18 18 18 18 18 18 18 18 18 18 18 17 17 17 17 17 17 17 17 17 17 17 17 17 17 17 17 17 17 17 17 17 17
17 17 17 17 17 17 17 17 18 17 17 18 18 18 18 18 18 18 18 18 18 18 17 17 17 17 17 17 17 17 17 17 17 17 17 17 17 17 17 17 17 17 16
16 16 16 17 17 17 17 17 17 17 17 17 18 18 18 18 18 18 18 18 18 18 17 17 17 17 17 17 17 17 17 17 17 17 17 17 17 16 16 16 16 16 16
15 16 16 16 16 17 17 17 17 17 17 17 17 17 18 18 18 18 18 18 18 17 17 17 17 17 17 17 17 17 17 17 17 17 17 17 16 16 16 16 16 16 16
15 15 15 16 16 16 16 16 17 17 17 17 17 17 17 17 18 18 18 18 18 17 17 17 17 17 17 17 17 17 17 17 17 17 17 16 16 16 16 16 16 16 16
14 15 15 15 15 16 16 16 16 16 16 16 16 16 16 17 17 18 18 18 17 17 17 17 17 17 17 17 17 17 17 17 17 17 17 16 16 16 16 16 16 16 16
14 14 14 15 15 15 15 16 16 16 16 16 16 16 16 17 17 17 17 17 17 17 17 17 17 17 17 17 17 17 17 17 17 16 16 16 16 16 16 16 16 16 16
13 14 14 14 15 15 15 15 15 16 16 16 16 16 16 16 17 17 17 17 17 17 17 17 17 17 17 17 17 17 17 16 16 16 16 16 16 16 16 16 16 16 16
13 13 14 14 14 14 15 15 15 15 15 15 15 16 16 16 16 16 17 17 17 17 17 17 17 17 17 17 17 17 16 16 16 16 16 16 16 16 16 16 16 16 15
13 13 13 14 14 14 14 15 15 15 15 15 15 15 16 15 16 16 16 17 17 17 17 17 17 17 17 17 16 16 16 16 16 16 16 16 16 16 16 15 15 15 15
13 13 13 13 14 14 14 14 14 15 15 15 15 15 15 15 16 16 16 16 16 16 16 17 17 17 17 16 16 16 16 16 16 16 16 16 15 15 15 15 15 15 15
12 13 13 13 14 14 14 14 14 14 15 15 15 15 15 15 15 15 16 16 16 16 16 16 17 16 16 16 16 16 16 16 16 16 15 15 15 15 15 15 15 15 15
12 12 13 13 13 14 14 14 14 14 14 15 15 15 15 15 15 15 15 15 15 15 15 16 16 16 16 16 16 16 16 16 15 15 15 15 15 15 14 14 14 14 14
12 12 12 13 13 13 13 13 14 14 14 14 14 14 14 15 15 15 15 15 15 15 15 15 15 15 15 16 15 15 15 15 15 15 15 14 14 14 14 14 14 14 14
12 12 12 12 13 13 13 13 13 14 14 14 14 14 14 14 14 14 15 15 15 15 15 15 15 15 15 15 15 15 15 15 15 15 14 14 14 14 13 13 13 13 13
12 12 12 12 12 12 13 13 13 13 14 14 14 14 14 14 14 14 14 14 14 14 14 14 14 14 14 14 14 14 14 14 14 14 14 14 13 13 13 13 13 13 13
11 12 12 12 12 12 12 13 13 13 13 13 14 14 14 14 14 14 14 14 14 14 14 14 14 14 14 14 14 14 14 14 13 13 13 13 13 13 13 13 12 12 12
11 11 11 12 12 12 12 12 12 13 13 13 13 13 14 14 14 14 14 14 14 14 14 14 14 13 13 13 13 13 13 13 13 13 13 13 13 12 12 12 12 12 12
11 11 11 11 11 12 12 12 12 12 13 13 13 13 13 13 13 13 13 13 14 14 13 13 13 13 13 13 13 13 13 13 12 12 12 12 12 12 12 12 12 12 12
11 11 11 11 11 11 12 12 12 12 12 12 13 13 13 13 13 13 13 13 13 13 13 13 13 13 13 13 13 13 12 12 12 12 12 12 11 11 11 11 11 11 11
11 11 11 11 11 11 11 12 12 12 12 12 12 12 13 13 13 13 13 13 13 13 13 13 13 13 13 13 13 12 12 12 12 12 11 11 11 11 11 11 11 11 11
11 11 11 11 11 11 11 11 12 12 12 12 12 12 13 13 13 13 13 13 13 13 13 13 13 13 13 13 13 13 12 12 12 11 11 11 10 10 10 10 10 10 10
10 11 11 11 11 11 11 11 11 12 12 12 12 12 12 12 13 13 13 13 13 12 12 12 12 12 13 13 12 12 12 12 11 11 11 11 10 10 10 10 10 10 10
10 10 10 10 11 11 11 11 11 11 12 12 12 12 12 12 12 12 13 13 12 12 12 12 12 12 12 12 12 12 12 12 11 11 11 11 10 10 10 9 9 9 9
Wind_Speed
5 4 5 6 7 7 6 5 5 5 5 5 6 6 6 7 7 7 7 8 8 8 7 7 7 7 8 8 8 8 8 9 9 9 9 9 10 10 10 9 9 8 7
4 4 5 4 5 7 7 6 5 4 4 4 5 6 6 7 8 9 8 8 9 9 8 8 8 8 8 9 9 8 8 8 9 9 9 9 10 10 9 8 7 7 6
6 5 5 5 5 7 7 5 4 4 3 4 4 5 5 6 7 8 9 8 8 9 9 9 9 9 9 9 9 9 9 9 9 10 10 9 10 9 8 7 7 6 5
7 5 5 5 5 6 4 4 3 3 4 3 3 3 3 4 6 7 8 8 8 7 9 9 9 9 9 10 10 10 9 9 9 9 9 9 9 9 8 7 6 5 4
7 5 5 4 5 4 4 5 4 4 4 3 3 2 2 3 4 5 6 8 8 8 8 9 9 9 10 10 10 10 9 9 9 9 9 9 9 8 8 6 5 4 4
7 5 4 4 4 4 5 5 4 4 3 3 2 1 0 1 2 3 5 5 7 8 8 7 8 9 9 9 9 9 9 9 9 8 8 9 9 8 7 6 5 4 4
6 4 4 4 5 5 6 6 5 4 3 3 3 1 1 1 1 2 2 3 5 7 7 8 8 8 8 9 9 9 10 10 9 9 8 8 8 8 7 6 5 5 4
5 4 4 4 5 5 6 7 5 4 4 5 4 3 1 1 1 1 2 3 4 4 5 7 8 9 8 8 9 10 9 9 10 9 9 8 8 8 7 6 6 5 4
5 4 4 4 4 5 6 7 7 7 5 4 4 4 4 5 2 1 2 3 3 4 4 5 8 9 9 9 9 10 10 10 10 9 9 9 8 8 7 6 6 5 4
5 4 4 4 4 4 5 6 7 6 6 5 3 3 2 3 4 2 0 1 3 4 4 5 6 8 9 9 9 10 11 10 10 10 9 9 8 8 8 7 6 5 4
4 4 4 4 4 4 5 5 5 6 6 6 5 4 3 2 2 3 3 2 1 2 3 4 4 6 9 9 9 10 11 12 11 10 9 9 8 8 8 7 6 5 4
4 4 3 3 4 4 4 5 5 6 7 7 6 5 4 4 4 4 3 3 2 1 2 2 3 4 7 9 9 10 11 12 12 11 10 9 8 7 7 7 6 5 5
4 5 4 3 4 4 4 4 5 6 7 7 7 6 5 5 4 4 4 3 2 1 1 1 2 3 6 8 9 10 10 11 11 11 10 9 8 7 7 6 6 5 5
5 5 5 4 4 3 4 4 4 5 6 6 7 6 5 5 4 4 5 5 3 2 2 2 1 2 4 6 8 10 9 10 11 11 10 9 8 7 6 6 5 5 4
5 6 5 4 3 2 2 3 3 4 5 6 6 7 6 5 5 5 4 5 6 5 4 3 2 2 3 4 6 7 7 9 10 10 10 9 8 7 7 6 5 4 3
6 6 5 5 3 2 1 1 2 3 4 4 4 5 5 4 5 5 5 5 5 5 4 3 2 1 2 3 5 6 6 8 9 10 10 9 8 7 6 6 6 5 4
6 6 5 5 4 3 2 0 1 2 3 4 4 5 5 5 5 4 5 5 5 4 4 2 1 2 3 4 4 5 6 6 7 9 10 10 9 8 7 6 6 5 4
6 6 5 5 4 4 2 1 0 1 2 3 4 4 4 4 5 4 5 5 5 4 4 5 3 2 3 4 5 5 5 6 6 8 10 10 10 9 8 8 7 7 6
7 7 6 5 5 4 3 2 1 1 1 1 2 4 5 5 5 4 4 4 4 5 4 5 4 2 2 4 5 5 5 5 7 9 10 9 10 10 10 10 9 8 7
7 7 7 6 5 4 3 2 1 1 1 1 1 2 3 5 5 5 5 5 5 5 5 6 5 4 3 4 5 6 5 4 5 6 9 10 11 11 10 10 9 9 8
8 7 7 7 6 5 4 3 2 2 2 2 2 2 2 4 5 5 5 5 6 6 6 6 5 4 4 5 6 4 6 6 5 4 6 6 8 8 8 9 9 9 9
8 8 8 8 7 6 8 8 5 3 3 3 2 2 2 3 4 5 6 6 7 8 7 6 4 6 6 5 5 7 7 6 3 3 5 5 5 6 7 8 9 10 9
8 9 8 8 8 8 9 9 8 5 4 3 3 2 2 2 3 4 5 6 5 6 7 6 7 6 6 7 8 8 6 4 4 5 5 4 4 5 6 8 10 10 10
7 7 8 8 8 9 12 10 9 6 5 4 4 3 3 2 3 5 6 6 5 4 4 4 5 5 5 7 7 7 8 8 7 4 3 3 2 3 4 8 10 11 11
6 6 6 8 8 9 11 10 9 5 5 6 5 4 3 3 5 8 8 8 7 5 6 8 8 7 9 11 11 9 9 9 5 2 2 3 3 3 3 3 8 10 10
5 5 6 7 7 8 11 11 9 4 5 5 5 5 5 4 5 8 7 7 7 5 5 7 7 8 8 9 10 8 9 9 6 3 2 3 4 3 3 1 2 5 7
Wind_Direction
249 241 234 227 223 224 223 218 211 212 217 220 225 226 229 232 232 231 238 243 237 223 211 198 188 181 169 163 158 153 148 147 143 138 136 139 138 133 132 130 128 129 126
245 242 240 230 225 222 220 215 210 208 212 210 223 224 226 225 228 226 230 237 233 223 215 205 195 188 178 171 165 160 157 154 152 148 143 142 141 139 139 136 135 133 129
251 242 236 232 226 221 216 213 209 199 208 212 226 230 225 222 220 218 218 221 223 218 215 210 201 192 185 180 173 166 163 161 160 156 152 150 148 146 143 142 139 137 134
258 244 237 235 222 210 202 202 192 194 206 201 213 230 229 218 218 213 207 207 205 207 213 214 205 197 192 187 179 174 171 169 165 162 160 159 158 157 155 155 151 149 149
267 245 237 237 222 210 205 208 194 190 196 200 208 216 223 223 213 204 197 198 196 196 202 212 210 203 197 192 185 181 178 176 173 171 170 168 170 170 166 164 163 166 170
276 256 240 234 219 212 211 207 195 182 184 186 203 203 248 250 203 199 200 191 192 194 198 203 206 207 203 199 195 190 186 183 183 181 178 177 175 174 173 176 180 181 184
282 263 252 237 221 218 214 205 195 185 189 160 134 98 7 355 204 205 193 184 190 193 192 198 200 197 199 202 200 197 195 192 191 190 187 184 180 181 183 183 185 185 184
287 274 252 241 227 221 217 207 194 182 188 173 154 136 178 304 286 218 187 196 197 183 190 198 196 195 194 193 199 202 202 201 198 196 194 191 189 188 190 193 194 195 193
285 272 252 242 231 222 220 212 200 191 190 187 175 158 167 201 210 251 213 200 186 186 194 189 194 195 193 193 198 206 207 206 205 203 201 200 194 191 193 194 196 200 199
290 277 258 243 235 227 224 218 205 196 184 185 190 191 165 156 160 176 257 211 195 197 196 193 192 193 193 194 199 205 208 210 210 210 208 202 197 197 197 197 197 199 203
299 290 268 251 244 231 223 217 207 201 194 189 182 174 158 137 145 156 179 189 198 213 198 194 187 190 192 194 199 206 207 207 209 210 211 206 203 201 201 201 200 200 200
310 307 290 262 251 238 225 216 214 208 202 196 191 181 170 167 176 164 163 168 185 213 198 190 192 194 196 196 202 206 208 208 207 208 208 204 199 197 201 202 201 200 204
321 320 314 287 262 241 229 217 214 214 204 201 199 198 192 189 165 159 151 148 150 170 181 197 203 195 199 196 202 202 205 206 204 202 202 202 196 192 194 197 197 202 205
312 316 315 298 283 257 233 217 215 214 205 204 205 200 199 199 181 172 161 150 146 169 198 209 191 190 188 189 198 194 196 198 195 195 193 189 184 181 180 182 189 196 202
327 333 330 322 310 289 249 216 212 211 204 207 206 203 203 198 191 189 173 166 162 176 202 200 193 182 163 165 177 179 185 190 187 182 177 174 173 175 180 178 172 164 156
339 338 339 333 324 317 287 221 207 206 198 203 200 197 199 195 189 185 182 182 174 167 183 187 186 161 149 141 151 158 169 174 177 177 172 166 165 164 167 164 156 146 142
343 346 342 339 338 340 332 272 191 180 191 197 194 191 195 184 179 182 176 176 176 162 167 167 149 144 148 143 129 130 141 145 154 163 166 164 162 159 162 162 159 146 135
349 349 346 351 353 353 351 12 185 177 178 190 191 183 185 176 174 177 178 179 177 167 159 160 160 154 152 154 140 134 123 127 128 141 147 151 150 146 144 143 141 138 134
357 357 359 3 358 354 358 9 17 134 152 180 186 183 179 168 171 170 170 171 174 170 153 150 154 144 128 141 133 124 117 107 112 121 126 134 136 135 133 131 130 129 126
1 359 360 0 357 357 10 17 43 87 106 99 143 159 161 168 172 169 170 173 164 156 150 148 149 147 142 145 144 140 128 110 106 105 103 109 113 113 119 122 124 126 125
4 1 8 8 4 6 18 26 47 70 87 81 77 96 140 167 172 171 171 170 162 158 154 154 153 150 156 157 158 145 135 121 94 98 102 91 94 91 96 105 112 117 116
6 11 15 12 13 17 22 31 49 63 74 83 75 67 97 136 154 158 162 162 162 163 164 162 163 163 163 155 146 143 140 136 123 111 104 86 82 84 75 86 102 111 111
9 12 12 12 13 13 26 36 42 56 63 69 74 73 86 95 110 117 114 119 131 145 157 160 161 166 163 162 154 151 146 129 122 135 112 90 76 81 69 79 92 101 107
9 11 10 11 16 20 26 33 41 50 55 50 51 62 75 77 110 122 114 101 89 94 122 137 152 158 158 156 154 146 135 112 102 99 101 107 96 83 70 65 78 89 97
11 11 11 15 19 13 20 32 42 45 50 42 36 41 60 85 111 117 114 110 98 82 81 100 108 116 130 139 139 133 134 135 130 116 83 111 125 103 75 52 59 76 88
6 8 16 16 17 14 22 32 39 49 50 41 32 31 47 78 105 115 118 121 116 106 102 95 88 91 104 121 130 143 149 147 137 136 144 118 136 134 117 73 49 60 75
Height
1530 1532 1532 1533 1534 1536 1536 1537 1538 1539 1541 1542 1543 1545 1546 1547 1549 1550 1551 1552 1552 1552 1553 1554 1554 1555 1557 1557 1559 1560 1561 1562 1564 1565 1566 1568 1569 1570 1571 1572 1573 1574 1575
1526 1527 1528 1529 1530 1532 1533 1534 1535 1537 1538 1540 1541 1543 1544 1546 1547 1549 1550 1551 1551 1552 1552 1553 1554 1555 1556 1557 1558 1560 1561 1562 1564 1565 1566 1568 1569 1570 1571 1572 1573 1574 1575
1521 1522 1523 1524 1526 1527 1529 1530 1532 1533 1535 1537 1539 1540 1542 1544 1545 1547 1548 1549 1550 1551 1551 1552 1553 1554 1555 1556 1558 1559 1561 1562 1563 1565 1566 1567 1569 1570 1571 1572 1573 1574 1575
1517 1517 1518 1519 1521 1523 1524 1526 1528 1530 1532 1534 1536 1538 1539 1541 1543 1545 1546 1547 1549 1549 1550 1551 1552 1553 1554 1555 1557 1558 1560 1561 1563 1564 1565 1567 1568 1569 1570 1571 1572 1573 1574
1512 1512 1513 1515 1516 1518 1520 1521 1523 1525 1528 1530 1532 1534 1536 1538 1540 1542 1544 1545 1547 1548 1549 1550 1551 1552 1553 1554 1556 1557 1559 1561 1562 1563 1565 1566 1567 1569 1570 1571 1571 1572 1573
1507 1507 1508 1510 1511 1513 1515 1517 1519 1521 1524 1526 1529 1531 1533 1535 1537 1539 1541 1543 1545 1546 1547 1549 1550 1551 1552 1553 1555 1556 1558 1559 1561 1562 1564 1565 1566 1567 1568 1569 1570 1571 1572
1502 1502 1504 1505 1507 1508 1510 1512 1514 1517 1519 1522 1525 1527 1529 1531 1533 1536 1538 1540 1542 1544 1545 1547 1548 1550 1551 1552 1553 1555 1556 1558 1560 1561 1562 1564 1565 1566 1567 1568 1569 1570 1570
1497 1498 1499 1500 1502 1503 1505 1507 1509 1512 1515 1517 1520 1523 1525 1528 1529 1532 1534 1537 1539 1541 1543 1545 1546 1548 1549 1551 1552 1553 1555 1556 1558 1559 1561 1562 1563 1565 1566 1567 1567 1568 1569
1494 1494 1495 1496 1497 1498 1500 1502 1505 1507 1510 1513 1515 1519 1521 1523 1525 1528 1530 1533 1536 1538 1540 1542 1544 1546 1547 1549 1550 1552 1553 1554 1556 1557 1559 1560 1562 1563 1564 1565 1566 1566 1567
1490 1490 1491 1492 1493 1494 1496 1498 1500 1502 1505 1507 1511 1514 1517 1519 1521 1523 1526 1528 1531 1534 1536 1539 1541 1543 1545 1547 1548 1550 1551 1553 1554 1555 1557 1558 1560 1561 1562 1563 1564 1564 1565
1487 1487 1487 1488 1488 1489 1491 1493 1495 1498 1500 1502 1506 1509 1512 1515 1517 1519 1521 1524 1527 1530 1533 1535 1538 1540 1542 1544 1546 1548 1549 1551 1552 1553 1555 1556 1557 1559 1560 1561 1562 1562 1563
1485 1484 1484 1484 1485 1486 1487 1489 1491 1493 1495 1498 1501 1504 1507 1510 1512 1515 1517 1520 1523 1526 1529 1531 1534 1537 1539 1541 1543 1545 1547 1548 1550 1551 1553 1554 1555 1557 1558 1559 1560 1560 1561
1483 1482 1481 1481 1482 1482 1484 1485 1487 1489 1491 1494 1496 1499 1502 1505 1508 1511 1514 1516 1519 1522 1525 1527 1530 1533 1535 1537 1540 1542 1544 1546 1547 1549 1550 1552 1553 1555 1556 1557 1557 1558 1559
1481 1480 1480 1479 1479 1479 1480 1482 1483 1485 1487 1490 1492 1495 1497 1500 1504 1506 1509 1513 1516 1519 1521 1523 1526 1529 1531 1534 1536 1538 1541 1543 1545 1546 1548 1549 1551 1552 1553 1554 1555 1556 1557
1481 1479 1478 1477 1477 1477 1477 1478 1480 1482 1484 1486 1488 1491 1493 1496 1499 1502 1505 1508 1512 1514 1516 1519 1522 1524 1527 1530 1532 1535 1537 1539 1541 1543 1545 1546 1548 1549 1551 1552 1553 1554 1555
1481 1479 1477 1476 1475 1475 1475 1475 1476 1478 1480 1482 1485 1487 1489 1492 1495 1498 1500 1504 1507 1510 1512 1515 1518 1521 1523 1526 1528 1531 1533 1535 1537 1539 1541 1543 1544 1546 1548 1549 1550 1551 1552
1480 1478 1476 1475 1474 1473 1473 1473 1474 1476 1478 1480 1482 1484 1486 1489 1491 1494 1496 1499 1502 1505 1508 1511 1514 1517 1519 1522 1524 1527 1529 1531 1533 1535 1537 1539 1541 1543 1544 1546 1547 1548 1549
1480 1478 1476 1474 1473 1472 1472 1472 1473 1474 1476 1477 1479 1481 1483 1486 1488 1491 1493 1495 1498 1501 1504 1507 1510 1513 1516 1518 1521 1523 1526 1528 1530 1532 1534 1536 1538 1540 1541 1543 1544 1545 1546
1481 1479 1476 1474 1473 1472 1471 1471 1472 1473 1474 1475 1477 1479 1481 1483 1486 1488 1490 1492 1495 1497 1500 1503 1506 1509 1512 1515 1518 1520 1523 1525 1527 1529 1531 1533 1535 1537 1538 1540 1541 1542 1543
1483 1480 1477 1475 1474 1473 1472 1472 1472 1472 1473 1474 1475 1477 1479 1481 1484 1486 1488 1490 1492 1494 1497 1500 1503 1506 1509 1512 1515 1517 1520 1522 1525 1527 1529 1531 1533 1535 1536 1537 1539 1540 1540
1484 1481 1479 1477 1476 1474 1473 1472 1472 1472 1473 1474 1475 1476 1478 1480 1482 1484 1485 1487 1489 1492 1494 1497 1500 1503 1506 1508 1511 1514 1517 1520 1523 1525 1527 1529 1531 1533 1534 1535 1537 1538 1539
1487 1484 1481 1479 1477 1476 1475 1474 1473 1473 1473 1474 1475 1476 1477 1479 1481 1482 1484 1486 1488 1490 1493 1495 1498 1500 1503 1506 1509 1512 1515 1518 1521 1524 1526 1528 1530 1531 1533 1534 1535 1536 1537
1489 1486 1484 1481 1479 1478 1477 1476 1475 1475 1474 1475 1476 1477 1478 1479 1481 1482 1483 1485 1487 1489 1492 1495 1496 1498 1501 1504 1507 1510 1514 1517 1519 1522 1525 1527 1529 1531 1532 1533 1534 1535 1536
1491 1489 1486 1484 1482 1481 1479 1478 1477 1477 1477 1477 1477 1478 1479 1480 1481 1482 1484 1485 1487 1489 1491 1494 1496 1498 1501 1504 1507 1510 1512 1516 1519 1522 1525 1526 1528 1530 1531 1533 1534 1535 1536
1494 1491 1489 1487 1485 1483 1482 1481 1480 1479 1479 1479 1479 1479 1480 1481 1482 1483 1484 1486 1488 1490 1492 1494 1497 1499 1501 1503 1506 1509 1511 1514 1517 1520 1523 1525 1527 1529 1531 1532 1533 1535 1535
1496 1494 1492 1490 1488 1486 1485 1484 1483 1482 1481 1481 1481 1481 1482 1482 1483 1484 1486 1487 1489 1491 1493 1495 1497 1499 1501 1503 1506 1508 1511 1513 1515 1519 1521 1524 1526 1528 1530 1532 1533 1534 1535